Theta_e
343 348 350 351 349 343 349 349 344 346 346 343 342 340 345 346 343 342 336 337 337 339 339 337 336 333 333 332 331 332 334 334 332 336 337 338 337 337 328 337 336 339 337 332 334 340 342 342 342
345 349 351 350 344 346 348 346 348 346 345 344 344 344 344 346 343 339 338 338 338 339 338 337 334 333 330 330 329 331 333 333 334 334 337 337 336 330 337 337 336 335 329 326 333 339 340 341 342
351 351 351 346 348 344 349 345 346 345 344 344 345 345 344 346 342 338 337 338 338 338 337 334 334 335 334 332 332 333 334 334 335 336 335 338 339 338 339 325 324 328 333 337 340 341 341 344 340
349 351 349 349 352 346 347 343 344 344 342 341 344 345 344 344 339 335 338 337 338 337 337 336 336 337 338 336 335 334 334 336 336 334 336 335 332 332 330 337 332 323 330 332 336 336 338 342 342
349 347 353 350 350 347 344 344 344 345 345 343 343 347 346 345 338 334 337 337 337 337 337 336 336 336 337 337 336 335 332 332 337 336 334 333 333 331 329 328 327 323 323 331 332 338 341 343 343
350 347 352 354 351 348 346 345 346 346 345 345 346 346 347 345 336 333 337 336 337 337 336 338 338 337 337 337 336 335 336 335 337 333 332 335 331 331 331 330 327 325 324 333 340 343 343 344 342
348 350 352 353 353 350 347 344 346 345 344 345 345 345 347 345 341 338 333 336 337 338 336 336 339 339 339 337 338 336 334 339 339 340 338 335 333 331 330 329 327 326 324 324 340 342 342 342 341
348 348 352 350 352 352 345 344 345 345 345 344 343 346 346 344 343 344 336 333 335 333 335 337 337 339 340 338 336 337 334 335 334 336 335 333 336 331 329 327 325 325 328 325 326 340 340 339 340
345 351 354 351 352 353 348 344 343 344 345 344 345 342 342 342 345 345 336 333 333 333 333 332 333 337 340 340 337 332 332 332 334 335 334 336 335 337 340 343 342 338 335 337 336 337 339 340 341
346 349 352 346 346 350 349 344 342 344 345 346 344 344 343 344 345 338 335 333 332 330 328 328 330 335 339 338 337 333 330 332 333 334 335 337 338 340 341 342 344 345 345 344 340 339 339 339 340
344 350 348 348 348 346 349 343 341 343 347 345 345 345 346 345 343 342 339 333 331 328 328 328 329 334 337 337 335 339 336 338 337 335 337 336 339 343 344 343 342 343 344 345 346 346 344 340 340
346 345 344 345 346 347 348 349 343 344 343 344 343 344 345 344 344 342 342 341 341 336 338 334 329 333 335 341 342 338 338 343 342 335 336 340 340 338 341 342 342 342 342 343 346 346 345 344 340
344 343 344 344 345 346 347 348 345 345 343 345 344 344 343 343 343 343 340 340 342 343 339 335 330 335 335 340 343 342 343 343 343 337 336 337 337 341 341 344 343 343 344 345 346 345 345 343 343
346 346 345 344 343 345 349 347 346 344 343 344 344 343 343 344 344 344 344 343 343 342 340 340 332 338 340 342 344 341 341 342 343 341 338 338 340 341 343 341 344 343 344 344 344 344 344 345 344
345 346 346 346 345 348 345 347 346 343 344 345 345 344 345 344 345 343 343 341 342 339 340 341 342 344 343 343 342 342 343 343 341 338 341 339 340 342 343 343 343 341 344 344 344 344 344 344 345
348 348 353 346 348 348 346 349 344 343 344 345 345 344 345 345 345 343 342 343 341 343 342 341 343 343 343 343 344 343 342 343 343 341 341 339 342 343 342 342 346 346 346 348 348 345 345 344 345
347 353 352 351 349 346 347 349 343 342 343 342 342 343 345 345 345 344 344 344 343 341 341 341 341 343 342 343 344 344 341 343 341 341 339 342 342 345 344 344 347 346 348 347 347 347 347 346 345
350 346 346 348 350 350 350 348 344 343 343 342 341 343 344 345 344 345 345 345 344 341 341 341 342 343 343 343 344 343 344 344 342 339 338 342 342 342 342 345 346 347 348 346 348 348 348 347 348
346 347 347 349 347 350 352 347 345 341 343 344 341 343 343 344 344 346 345 346 343 343 340 339 342 342 342 342 343 344 344 343 342 341 341 343 338 343 343 346 344 345 347 346 349 350 347 347 347
328 334 348 348 345 346 346 350 346 342 342 345 342 342 343 344 345 346 346 346 343 343 339 339 338 339 341 341 342 342 344 342 345 345 343 344 340 340 343 345 346 339 341 347 351 350 347 348 349
331 343 348 349 348 348 348 349 348 344 343 345 343 342 343 344 345 346 347 346 344 344 342 341 340 339 341 343 345 345 343 345 344 346 345 343 341 343 345 345 344 340 345 347 351 350 348 346 346
333 342 345 349 348 353 344 356 348 346 345 345 343 342 343 343 343 344 346 345 344 343 344 342 341 340 340 340 344 344 343 344 344 345 344 342 343 343 342 343 342 345 346 346 348 348 345 345 346
341 344 346 342 340 343 346 345 346 342 345 345 346 343 343 344 343 344 344 344 344 343 343 345 342 342 341 341 343 341 343 343 343 342 346 343 344 343 345 344 344 342 344 348 346 345 346 342 343
341 341 340 338 339 345 344 346 343 342 341 342 346 344 345 344 344 344 344 344 344 343 345 345 344 344 342 341 341 340 344 344 343 343 342 342 342 344 345 346 343 341 341 342 344 343 346 347 346
340 339 339 342 345 344 341 344 342 342 340 340 342 346 345 346 344 344 344 344 345 345 345 344 345 344 343 341 341 342 342 343 343 343 342 343 342 342 343 346 347 343 342 345 346 345 345 344 346
334 332 339 346 343 342 343 348 349 344 344 343 340 343 344 345 345 345 345 345 346 345 345 345 345 345 345 340 340 341 342 343 344 344 345 345 345 345 344 342 344 346 343 340 342 343 347 345 345
331 332 333 336 331 332 343 346 347 346 346 343 342 344 344 344 346 346 346 346 346 345 346 346 345 345 346 343 341 342 343 343 344 344 345 345 344 344 344 344 341 344 343 343 346 343 345 350 349
330 326 330 325 333 333 338 348 343 343 347 347 344 344 343 343 344 345 346 346 346 347 347 346 346 346 346 344 342 344 344 344 343 344 345 346 346 344 345 345 347 348 346 345 345 344 342 346 349
321 320 317 321 323 328 345 344 342 343 342 341 339 343 343 341 342 345 345 346 346 346 346 346 347 347 347 346 342 344 344 345 345 344 345 347 346 344 347 347 347 347 347 346 346 349 344 346 346
323 321 315 318 321 321 322 331 338 340 340 341 339 339 342 343 341 342 344 344 345 345 343 343 346 347 346 346 342 344 344 342 343 344 345 344 345 346 346 347 346 345 346 344 347 342 345 343 346
Wind_Speed
5 4 4 2 3 4 3 4 2 5 3 2 23 9 11 8 1 4 19 14 16 15 19 21 21 21 25 23 20 21 20 18 17 16 16 17 17 16 19 16 16 14 11 15 16 16 18 19 18
3 3 3 1 4 4 3 5 7 6 13 29 17 13 11 5 10 20 20 20 18 21 24 22 23 22 23 23 22 19 15 16 16 16 15 16 16 17 16 15 15 14 14 16 16 15 14 14 13
2 2 2 3 3 4 4 2 13 14 10 12 7 12 6 5 20 25 22 23 22 23 23 23 21 19 19 19 19 17 16 15 15 15 15 15 16 15 14 14 14 13 14 16 15 14 14 13 14
2 1 2 4 4 4 3 8 12 17 21 20 16 10 13 9 21 22 24 23 23 24 20 20 17 15 16 15 16 14 13 14 14 15 14 14 13 13 13 13 13 14 14 14 13 13 13 13 11
4 0 2 5 3 3 3 13 18 7 8 17 14 7 10 9 20 25 23 23 23 21 18 17 16 16 16 16 15 15 13 12 13 13 13 13 12 11 11 11 12 12 12 12 14 15 12 10 9
3 1 4 5 7 4 4 12 18 22 20 21 18 15 6 17 24 24 22 22 20 20 18 17 16 16 15 14 15 14 13 12 11 13 14 13 13 13 13 12 13 13 12 13 14 13 12 11 10
3 2 2 10 8 3 3 12 15 20 17 9 18 6 13 23 24 23 22 21 20 18 17 16 16 15 14 15 14 15 14 14 12 13 14 13 13 14 14 14 14 14 12 11 12 14 13 9 8
2 2 2 4 6 3 8 9 24 26 7 20 22 7 11 25 22 21 22 21 19 17 16 16 15 14 12 15 15 13 14 14 13 15 14 15 15 16 18 18 18 16 15 14 13 12 10 7 4
3 3 3 3 4 4 6 8 15 10 24 12 4 27 31 28 25 23 24 22 20 18 16 15 14 15 14 13 15 14 15 15 14 17 17 17 17 17 17 17 16 17 15 14 14 12 10 8 4
4 3 2 1 3 3 5 18 16 13 17 20 26 24 31 31 28 27 25 25 22 20 17 16 16 16 15 15 16 16 16 16 15 17 18 17 16 16 14 12 11 10 10 9 9 8 6 4 2
3 1 1 2 2 4 4 17 19 23 11 32 34 34 33 29 30 25 22 21 21 19 19 18 17 17 16 15 18 17 18 17 15 18 17 17 15 12 10 9 11 12 10 10 10 8 4 3 2
4 8 6 7 1 1 2 3 15 12 11 34 36 38 36 31 29 25 23 22 22 23 17 18 20 19 18 18 18 16 15 14 13 16 15 16 13 11 10 11 10 9 13 12 13 13 12 8 4
3 8 14 8 8 6 11 5 15 9 25 35 37 35 34 31 28 24 23 22 21 22 19 18 20 20 20 17 16 15 15 14 12 13 12 12 9 9 10 10 10 9 8 10 10 9 9 7 7
7 9 11 13 10 6 2 8 16 17 34 33 34 36 35 30 28 25 24 22 21 20 19 20 21 20 17 16 16 15 15 12 9 8 7 12 10 9 9 8 7 8 7 7 8 7 5 4 5
12 6 5 5 14 5 5 5 7 31 35 29 29 34 35 31 30 27 25 21 20 23 20 22 19 18 16 14 16 14 12 10 5 1 9 8 8 7 8 9 9 8 7 6 4 4 5 5 3
5 3 2 7 12 3 1 3 4 34 34 29 29 29 30 35 32 27 25 22 21 24 22 18 17 16 15 17 14 13 13 8 4 7 7 10 10 6 9 10 8 7 5 6 5 2 7 8 7
7 2 6 7 7 3 7 4 12 23 26 26 30 31 32 32 28 29 26 24 23 20 19 20 18 15 17 17 12 15 11 9 4 7 7 13 6 4 6 4 6 10 8 7 6 6 5 2 4
4 4 2 11 3 5 9 5 9 16 18 20 30 28 32 34 38 32 28 25 23 20 15 15 20 17 19 16 14 15 12 8 6 5 8 6 3 7 5 4 5 6 4 3 3 4 2 4 2
9 4 9 0 7 7 4 6 13 9 18 16 27 30 32 37 38 33 31 28 24 22 19 17 21 22 20 18 16 17 12 10 9 9 8 5 7 8 6 4 4 4 3 3 4 4 3 2 2
2 7 7 10 8 3 5 4 6 3 2 10 22 27 29 30 33 34 34 31 28 26 22 20 15 20 25 18 17 17 15 11 9 7 6 4 6 6 7 5 5 3 3 2 3 4 4 3 4
3 2 6 3 11 1 7 2 3 5 7 8 14 30 31 35 37 38 37 34 30 28 26 22 17 24 21 19 16 17 16 14 15 9 7 4 5 6 7 3 6 2 4 4 2 4 3 2 2
1 10 4 11 4 3 3 5 6 6 10 11 17 23 32 35 36 38 38 35 34 29 23 25 21 23 25 22 20 18 17 16 15 12 7 7 6 5 6 6 6 3 3 5 1 1 3 5 5
1 6 5 7 3 2 3 2 3 5 11 10 13 27 32 37 41 40 40 34 33 28 25 26 24 22 22 20 23 19 17 13 15 12 12 10 9 6 5 6 6 5 6 3 2 2 2 2 1
14 8 7 5 3 2 3 2 4 5 15 9 14 19 29 37 40 41 40 37 31 28 25 26 25 22 21 23 25 25 19 16 15 15 14 12 11 10 9 7 6 6 8 7 4 3 2 1 2
12 6 3 4 2 4 4 2 8 7 9 17 20 25 29 33 38 43 41 38 33 29 26 24 25 23 21 25 26 26 23 18 18 15 15 15 13 13 12 10 7 6 7 7 7 5 5 4 1
8 7 5 1 3 1 5 5 4 6 12 20 30 36 35 32 37 40 42 38 33 27 25 24 25 23 21 27 28 27 24 20 20 18 17 16 17 14 11 15 13 10 8 11 8 9 7 5 3
4 4 10 2 3 2 3 6 5 6 5 13 26 32 39 42 39 41 41 38 34 31 28 26 23 23 23 24 27 27 24 24 21 20 17 17 15 16 16 14 14 12 9 11 10 10 9 6 5
9 8 8 1 3 3 2 3 4 5 4 4 8 25 37 44 44 41 42 38 32 30 28 27 24 22 21 21 26 25 23 21 22 21 19 19 16 16 15 16 15 14 12 13 11 8 10 11 9
1 1 6 6 3 4 4 6 7 3 7 6 4 11 20 27 34 46 44 41 37 29 26 25 28 25 23 21 21 23 24 23 21 22 21 18 18 18 15 14 16 16 16 14 13 9 9 12 12
5 3 5 5 4 2 3 4 6 4 10 14 7 13 21 27 30 36 42 39 38 35 31 28 27 27 25 20 19 21 21 21 20 21 19 19 18 19 17 15 14 15 16 16 15 11 11 13 10
Wind_Direction
114 65 3 354 51 64 34 38 83 102 76 235 161 127 112 45 108 159 139 149 146 138 145 146 142 132 127 127 121 115 113 116 112 116 121 119 114 115 122 118 118 117 115 118 117 113 113 109 109
78 350 352 359 73 66 7 350 87 93 120 111 97 101 57 59 107 134 144 148 134 131 137 140 141 132 126 127 118 114 122 123 128 126 122 124 121 121 120 120 120 116 116 123 125 127 120 110 105
74 9 15 75 90 126 134 80 117 119 108 117 104 72 74 95 127 136 143 143 137 135 137 139 139 136 131 133 121 108 114 118 127 126 126 127 125 121 116 116 118 121 119 126 123 121 113 106 95
45 48 56 73 75 20 130 151 138 101 80 93 101 77 86 133 131 142 142 143 142 138 139 146 147 146 141 137 128 135 121 119 122 126 125 124 120 117 114 109 109 117 127 136 129 117 108 99 92
32 330 66 87 91 77 48 111 126 101 82 95 101 91 96 125 137 140 143 148 146 143 141 143 146 142 142 142 139 136 130 130 126 126 125 114 107 105 104 104 108 116 125 126 122 115 102 88 83
14 43 71 90 107 108 267 136 114 88 97 104 100 106 92 149 142 143 147 151 148 142 141 141 144 140 139 139 140 142 139 135 126 125 119 105 104 104 102 104 105 110 116 126 128 116 105 98 86
84 36 43 125 128 153 235 137 116 115 122 122 130 89 141 154 152 147 148 153 155 153 146 144 142 140 137 134 135 138 138 131 125 113 118 112 108 105 102 100 100 101 109 121 134 124 117 103 87
75 98 99 74 156 126 160 117 132 138 104 137 127 137 161 155 165 156 159 158 160 159 156 151 147 136 142 134 133 138 139 131 122 117 121 114 108 103 96 89 89 92 99 111 127 140 133 128 96
28 58 50 36 130 140 186 131 147 146 135 137 196 148 151 156 163 163 164 165 163 162 160 158 152 144 143 140 136 141 145 133 126 126 124 116 113 109 97 91 88 93 100 109 117 127 133 148 149
51 68 311 113 302 337 120 145 143 133 136 112 117 147 152 158 164 160 166 168 167 167 165 162 160 152 144 142 138 136 138 135 130 132 128 124 120 114 107 96 96 96 105 114 115 119 133 138 168
30 135 192 203 59 340 42 140 156 146 142 150 146 157 162 164 166 161 161 165 165 161 162 159 160 158 153 149 142 135 134 135 131 141 138 133 127 114 98 102 111 109 105 107 100 98 116 121 109
132 149 193 197 54 344 277 351 176 171 172 162 157 159 165 170 173 169 165 161 157 153 154 158 158 159 157 149 141 143 137 143 143 143 143 138 124 111 108 114 111 105 100 99 91 88 77 90 77
203 173 214 232 253 266 307 247 182 191 163 162 161 162 169 173 177 173 166 168 161 159 153 149 155 158 159 159 154 150 152 141 137 139 144 148 145 121 128 122 116 106 99 100 92 89 88 88 73
203 161 201 201 224 252 232 226 145 188 161 157 163 169 170 173 176 178 178 176 176 176 169 155 154 159 162 167 159 159 152 145 146 145 146 156 141 124 129 124 122 121 123 100 88 71 90 98 72
112 102 155 180 166 240 249 109 164 156 160 161 170 174 175 176 179 180 180 177 176 169 165 163 163 164 167 159 166 161 153 144 156 186 174 162 159 127 114 114 96 124 125 95 64 70 98 101 88
90 87 59 159 175 243 84 180 187 156 157 171 178 179 180 184 182 181 179 173 171 170 174 173 171 175 170 173 171 169 161 153 137 150 149 162 147 111 109 107 84 108 126 88 68 77 85 114 101
27 121 347 332 239 219 217 145 182 161 172 172 182 180 184 185 185 187 182 176 178 178 183 181 175 179 167 164 172 184 167 167 162 154 156 145 122 119 113 95 83 110 96 87 76 71 77 131 150
163 131 128 244 222 270 222 156 152 189 211 171 176 175 185 185 191 188 188 179 182 172 166 179 179 183 177 178 188 184 190 193 178 153 146 161 203 175 138 102 97 126 109 105 70 72 95 81 31
139 166 187 99 61 307 336 159 172 163 152 165 171 173 181 189 189 190 187 183 183 177 171 169 187 186 187 193 200 196 210 187 160 138 137 147 177 143 142 131 136 126 167 146 146 136 117 54 99
236 241 172 130 197 208 41 231 311 95 29 166 184 181 181 180 187 192 189 187 185 181 176 171 180 190 191 196 190 195 190 184 177 171 156 136 143 178 167 163 160 112 161 164 180 160 142 84 122
292 208 187 136 158 49 135 56 296 94 270 228 192 185 180 184 186 191 191 192 189 186 186 181 175 179 184 189 197 199 196 209 205 213 202 181 169 176 190 155 185 137 151 177 198 195 174 204 171
187 241 121 138 135 171 248 184 215 190 206 210 176 175 183 185 193 192 194 194 197 192 190 190 184 183 194 204 201 204 209 214 206 206 211 206 201 198 207 207 199 200 185 165 177 60 215 222 249
271 32 95 113 107 109 211 138 228 157 201 202 193 183 190 191 194 195 196 197 198 200 195 194 192 194 204 206 208 207 206 206 202 199 206 220 214 199 186 218 221 216 206 174 156 219 72 149 192
115 89 44 46 85 352 154 110 256 198 218 181 184 178 183 191 193 196 198 198 199 200 200 199 199 198 207 214 211 210 209 212 212 218 224 215 217 215 215 222 221 234 221 220 211 213 181 195 350
119 121 28 8 21 235 86 87 244 199 208 186 179 184 194 193 194 197 196 200 199 202 205 206 206 207 211 211 212 211 218 219 219 233 217 218 222 226 226 228 230 242 235 238 222 219 216 224 124
194 145 130 134 211 270 41 239 246 228 261 228 185 184 193 200 198 201 200 201 202 205 207 210 213 215 220 211 213 219 225 225 228 224 219 224 230 229 228 234 238 235 242 231 235 215 223 222 238
192 120 122 305 263 96 215 276 289 221 328 156 167 172 186 198 197 199 205 204 205 207 207 213 218 220 223 222 220 223 228 229 231 227 225 225 229 225 220 222 224 239 242 228 228 224 220 216 201
167 166 112 311 296 255 275 272 247 300 79 1 198 189 191 194 197 200 199 202 202 207 206 212 215 222 225 227 224 225 229 233 234 231 234 227 223 213 223 226 226 230 242 229 231 236 230 227 228
106 178 56 124 187 179 150 255 349 335 135 111 128 193 203 198 196 200 202 202 202 198 206 216 215 219 223 231 227 229 230 235 236 240 242 237 227 221 227 228 226 231 232 229 225 230 254 231 240
91 123 129 120 203 241 160 260 335 76 102 116 160 208 217 213 207 206 206 205 205 211 218 216 215 222 222 225 225 227 232 229 236 238 240 246 242 232 231 239 233 226 233 217 234 248 250 232 221